Probability
8 8 8 6 4 4 3 4 7 9 9 8 6 4 3 1 2 3 4 3 4 6 6 7 7 7 6 5 4 3 3 4 4 2 1 0 0 1 2 2 1 2 2
10 11 10 8 6 6 6 8 11 12 11 10 9 7 4 2 3 4 4 3 3 5 6 7 7 8 7 5 4 3 3 3 3 3 2 1 0 1 2 2 1 1 1
11 11 11 10 8 7 10 13 15 15 13 12 12 10 7 4 4 5 4 2 2 3 5 5 5 7 7 5 4 4 3 2 3 3 3 2 1 1 2 2 1 0 0
10 11 11 9 8 9 12 15 18 18 16 13 12 11 8 5 4 5 4 3 2 2 4 4 3 3 4 4 4 5 4 4 3 3 3 3 3 3 3 2 1 0 0
11 11 10 9 9 10 12 16 20 21 17 12 11 10 8 5 4 4 4 3 2 1 2 2 1 1 2 2 3 4 5 4 4 3 3 3 3 3 3 2 1 0 0
11 11 9 8 9 11 14 17 19 19 16 12 9 8 6 5 4 4 3 2 1 0 0 1 0 0 1 1 2 3 3 3 2 2 3 3 3 3 3 2 1 0 0
11 10 8 7 10 14 18 19 19 19 16 13 10 7 5 5 5 3 2 1 1 0 0 0 0 0 0 0 1 1 1 1 2 2 3 3 3 3 3 3 1 0 0
13 11 10 11 14 17 20 22 21 20 18 16 13 9 6 5 4 2 1 0 0 0 0 0 0 0 0 0 0 1 2 2 2 4 4 4 3 3 4 4 3 1 0
16 16 16 19 20 19 21 23 23 21 20 18 15 11 7 6 4 3 1 1 1 1 0 0 0 0 1 1 2 3 4 4 3 4 5 5 4 4 5 6 5 2 1
18 19 21 23 24 22 22 24 24 21 19 17 15 12 9 7 6 5 4 3 3 2 1 1 1 1 1 2 4 6 7 7 6 6 8 8 6 6 7 8 7 6 4
17 20 22 24 25 25 24 25 25 21 17 15 14 11 9 7 5 4 4 4 3 3 3 3 3 2 2 3 6 9 10 9 9 10 11 11 8 7 8 10 11 9 8
16 19 22 23 24 25 26 25 24 21 17 15 13 11 9 7 5 4 3 3 3 3 4 6 6 5 5 7 9 11 11 11 12 12 13 12 9 8 9 11 12 12 11
15 18 20 21 22 24 25 23 22 22 21 18 15 12 11 10 9 7 6 5 4 4 6 9 11 11 12 13 14 14 13 12 12 12 12 11 10 9 9 11 12 12 12
13 16 19 20 20 20 21 20 20 21 22 21 18 15 14 15 15 13 11 9 8 8 9 11 12 14 16 18 18 16 14 12 11 10 10 9 9 9 9 10 10 11 12
12 14 16 18 17 16 17 18 18 20 21 21 19 17 16 18 18 16 14 13 13 13 13 12 12 14 16 17 17 16 14 13 11 9 8 8 9 9 8 8 9 9 10
11 13 14 15 15 14 13 15 16 17 19 18 17 17 18 19 19 16 15 16 17 17 16 15 15 15 15 14 14 15 15 13 12 11 9 8 9 9 8 8 8 7 7
11 13 14 14 14 13 13 13 12 13 14 14 13 14 18 21 20 18 16 16 17 17 17 17 18 16 13 11 13 14 13 12 12 11 11 9 9 11 11 10 9 7 6
12 13 16 16 16 16 15 14 11 11 11 10 11 13 17 20 20 18 15 15 17 17 16 16 17 14 10 9 10 10 9 10 10 9 9 9 9 11 13 12 10 8 6
12 15 17 18 18 18 17 16 13 12 11 11 13 15 18 19 18 16 14 15 17 17 16 15 14 12 9 7 7 6 7 8 9 8 9 9 10 10 9 9 9 8 7
12 15 18 19 19 19 19 18 16 14 14 15 18 20 21 19 16 14 12 13 15 17 16 15 12 11 9 6 3 4 6 8 9 9 10 10 8 7 6 6 6 7 6
12 16 18 18 19 20 20 19 17 16 17 19 20 22 21 19 17 13 11 11 12 15 15 13 10 9 7 4 2 2 4 7 8 9 9 8 6 4 3 3 5 6 6
13 16 19 20 20 20 21 20 19 18 18 18 18 18 18 17 15 13 10 9 8 10 11 10 7 6 5 3 2 1 2 4 6 7 6 5 3 2 1 1 3 3 4
15 18 20 21 20 19 20 20 19 18 17 15 13 13 13 13 12 10 8 6 5 5 6 5 4 3 3 4 3 1 0 1 4 5 4 2 1 1 0 0 1 1 2
18 20 20 19 18 17 18 19 19 19 18 14 11 10 10 10 9 8 6 5 4 3 2 2 2 2 3 4 4 2 1 1 2 3 2 0 0 0 0 0 0 1 2
17 19 19 16 15 15 17 18 19 20 19 15 11 9 9 9 9 7 5 4 3 1 0 1 2 1 2 4 3 2 2 2 2 2 1 0 0 1 0 0 1 1 1
16 17 17 14 13 15 18 19 19 20 19 16 12 8 8 9 9 7 4 2 2 1 0 1 2 2 2 2 2 2 2 2 2 2 2 1 0 1 0 1 2 2 2
Wind_Speed
9 10 11 11 10 8 8 7 7 5 4 3 2 2 1 1 1 1 2 2 2 2 2 1 2 2 2 2 2 1 1 0 1 1 1 2 1 1 2 2 2 3 3
9 10 10 11 10 10 9 8 7 6 5 3 3 2 2 2 2 1 1 2 1 1 2 2 2 2 2 1 1 1 1 0 1 2 1 2 3 2 1 1 2 3 2
13 12 11 10 10 10 10 9 8 7 6 4 2 2 1 1 1 0 1 1 1 2 2 2 2 2 2 2 2 2 2 1 0 1 3 2 2 2 2 2 1 2 2
11 11 11 11 11 11 9 8 7 6 5 5 4 4 3 2 2 2 1 1 1 1 1 2 2 1 2 2 2 2 2 2 1 1 1 2 3 2 1 3 2 1 2
13 13 13 12 11 10 9 7 7 6 5 5 5 4 3 2 1 1 1 1 1 1 1 1 1 1 1 2 2 1 1 2 2 1 1 0 0 1 2 2 2 2 2
12 12 11 9 8 8 8 8 8 6 5 5 5 4 4 3 2 2 2 1 1 1 1 1 1 1 1 2 2 2 2 2 2 1 1 2 1 1 2 2 2 2 3
10 10 10 9 9 9 9 8 8 7 6 6 5 5 5 5 5 3 3 2 1 1 2 1 1 1 1 2 2 2 1 2 2 1 1 2 2 2 2 2 2 2 2
9 10 11 11 10 10 9 8 8 7 7 6 5 5 5 4 3 4 3 3 3 2 2 2 2 2 2 2 1 1 2 1 2 2 2 1 2 2 2 2 2 1 1
9 10 9 10 10 10 9 9 8 7 6 6 5 4 4 4 4 3 3 2 2 2 2 2 2 2 2 2 2 1 2 2 2 2 2 1 2 1 2 2 3 3 2
6 8 8 9 9 8 8 7 7 6 6 6 5 5 5 4 4 3 3 3 3 2 2 2 1 2 2 2 2 1 2 2 2 2 2 1 1 1 1 2 2 3 3
6 7 7 8 8 7 7 7 6 5 5 5 5 4 4 4 3 3 3 3 2 2 3 3 2 2 2 2 2 2 1 2 2 1 1 2 1 1 1 1 1 2 2
6 7 7 8 8 7 7 6 6 6 5 5 4 4 3 4 4 3 3 3 3 2 3 2 2 2 1 1 2 2 2 2 2 2 1 2 1 1 2 1 2 2 2
6 6 6 8 8 7 7 6 6 5 5 5 5 4 4 4 4 4 3 3 2 2 2 2 2 2 2 2 2 2 2 2 3 2 2 2 2 2 2 2 2 2 1
7 7 7 7 7 7 7 7 6 5 5 5 4 4 4 4 4 3 3 3 3 2 2 2 2 2 2 2 1 2 2 2 2 2 2 2 2 3 3 2 2 2 1
6 8 8 7 7 7 6 6 5 5 5 5 4 4 3 3 3 3 3 3 2 2 2 1 1 1 1 1 1 1 2 2 2 2 2 3 3 3 3 3 2 2 2
6 7 8 8 8 8 7 6 6 5 5 5 4 4 3 3 3 3 3 3 2 2 2 2 2 1 1 2 2 1 2 2 2 2 3 2 2 3 3 3 3 4 4
6 7 8 8 7 7 8 8 7 5 5 5 4 3 3 3 4 4 2 3 3 2 2 2 3 2 3 3 2 1 1 2 2 2 2 2 2 1 1 2 2 3 4
7 7 7 6 6 5 6 6 6 6 5 5 4 4 3 3 3 3 3 3 2 2 3 3 3 3 2 2 2 1 1 1 2 3 3 3 3 2 2 2 2 2 3
7 7 8 8 7 6 6 6 5 5 5 4 4 4 4 3 3 3 4 3 2 2 2 3 3 3 3 2 2 1 1 0 2 2 2 3 3 3 2 2 2 2 3
4 6 7 6 7 7 7 7 6 5 5 5 4 4 4 4 4 3 3 2 2 3 3 3 3 3 3 3 3 2 1 1 2 2 2 4 4 4 3 3 3 3 3
5 5 6 6 6 7 8 7 6 5 5 4 3 3 3 3 4 3 2 2 2 2 2 2 2 2 3 3 3 3 2 2 2 2 2 3 4 4 4 4 4 5 4
4 5 5 4 5 6 7 6 5 4 3 3 3 2 2 2 2 2 1 2 2 2 2 2 1 1 2 2 3 3 3 2 2 3 3 3 4 4 4 3 4 4 2
3 4 5 5 3 4 6 6 5 4 5 4 3 2 1 1 1 2 2 1 1 2 2 2 1 1 1 1 2 3 3 3 2 2 3 4 4 3 2 3 3 2 1
3 3 5 5 3 3 4 5 5 5 5 4 3 3 2 1 1 1 1 2 2 2 2 2 2 2 1 1 1 1 2 2 1 1 2 2 2 2 2 2 2 1 2
3 2 3 4 4 3 3 4 4 5 5 4 3 2 2 2 2 1 1 2 2 3 3 3 3 3 3 4 4 3 2 2 2 0 1 1 1 2 2 1 1 1 1
2 2 2 3 3 3 3 3 3 5 5 4 3 2 2 2 2 2 1 3 1 2 2 3 4 3 4 4 4 3 3 3 2 2 0 0 1 1 2 2 1 1 2
Wind_Direction
172 165 163 161 159 159 160 162 160 168 158 146 145 143 170 196 197 189 173 174 184 184 183 200 189 183 179 194 174 165 182 236 104 70 8 346 308 253 232 213 200 211 214
164 166 166 166 165 167 167 166 167 170 169 168 168 170 171 194 199 197 165 168 176 200 198 195 196 184 175 172 171 148 137 223 126 125 101 0 343 325 287 236 204 211 207
175 173 172 174 171 173 174 173 174 174 176 169 147 127 89 63 45 180 192 202 195 199 193 184 175 176 172 181 191 166 152 165 257 153 146 151 228 297 314 280 243 219 204
177 177 175 177 179 181 176 169 172 174 174 161 154 161 167 185 209 201 199 216 201 192 163 143 150 165 164 163 194 174 169 159 189 255 182 171 170 169 293 318 305 253 221
179 179 180 182 180 176 173 167 163 168 171 167 167 170 177 192 193 179 180 202 215 192 165 155 150 149 161 175 190 177 177 171 172 187 197 187 143 159 166 260 301 315 281
180 180 180 173 170 167 167 165 163 170 176 176 176 168 170 174 172 186 192 213 235 243 201 172 168 172 168 192 194 184 173 182 175 174 166 165 165 190 176 213 246 267 282
178 174 172 169 169 169 169 167 166 172 178 175 177 173 175 175 179 186 190 190 196 225 225 205 192 192 200 206 195 180 195 184 176 191 199 189 193 177 171 175 221 251 281
180 175 175 171 170 170 166 164 167 176 178 180 183 177 176 178 186 188 187 192 198 207 206 200 201 203 201 194 183 186 210 197 204 218 202 203 220 186 172 173 167 227 300
172 168 167 166 167 169 170 170 170 173 178 181 178 177 180 179 187 190 186 193 203 200 189 192 202 209 204 195 173 195 223 210 211 218 214 214 231 203 198 184 168 166 212
151 159 159 159 164 165 163 159 164 173 179 178 183 184 188 189 185 175 183 191 197 196 185 202 197 200 202 197 184 199 217 201 217 206 201 221 231 215 210 207 190 175 179
151 153 156 153 148 144 151 156 160 163 170 175 182 184 191 192 183 182 190 188 184 183 188 197 193 198 202 199 191 205 196 201 225 231 206 225 215 210 227 216 201 196 173
147 147 150 146 145 147 149 155 162 167 174 170 168 182 198 188 186 194 199 183 179 185 185 179 178 192 195 198 202 215 202 193 209 232 228 248 237 232 235 221 225 219 197
134 132 141 149 155 156 157 161 165 168 169 162 164 180 191 182 195 205 203 189 184 193 188 172 183 201 201 203 221 217 214 206 209 211 217 235 217 238 243 229 233 232 218
141 145 153 161 162 162 164 166 171 170 168 165 167 184 191 186 194 202 202 198 193 194 198 195 200 206 206 203 222 221 227 227 223 218 218 224 215 226 235 238 234 222 197
150 157 162 163 161 161 164 165 167 168 165 164 171 188 190 178 168 176 192 199 206 209 201 197 217 215 204 212 229 233 234 228 248 253 241 232 224 226 229 236 222 202 195
169 169 164 161 165 166 163 159 164 170 162 167 181 185 178 174 175 183 190 194 197 204 193 186 196 212 260 283 251 231 232 228 231 257 263 256 240 241 241 247 232 207 198
174 172 170 168 170 171 164 167 171 168 161 168 176 177 179 184 187 186 187 206 200 188 196 201 176 192 241 251 238 248 192 206 230 246 261 268 267 227 220 257 263 251 229
176 172 170 168 165 162 159 162 158 157 163 169 175 176 177 187 191 184 196 210 189 186 198 197 189 192 230 227 216 207 157 187 236 239 240 247 260 237 204 235 251 259 258
180 172 166 163 157 152 149 143 149 157 165 177 184 185 182 185 191 198 206 201 184 196 195 192 192 196 233 234 213 134 155 241 265 260 254 242 243 241 208 204 229 266 283
161 161 157 152 152 156 147 146 161 165 180 190 192 190 184 185 195 201 203 198 184 194 192 195 198 197 216 216 197 163 165 226 273 286 275 254 244 245 225 208 213 236 258
158 152 146 152 163 157 148 150 158 179 189 181 176 178 179 186 185 182 187 175 178 182 187 188 213 209 212 215 208 194 182 213 246 265 275 272 261 256 254 233 227 231 232
129 133 131 141 150 150 146 149 167 178 157 150 152 161 173 190 173 161 176 167 164 170 175 170 204 233 225 211 219 224 223 222 220 246 255 266 274 273 265 251 256 257 232
122 129 126 125 132 151 153 158 175 160 146 142 147 153 154 156 156 165 171 167 166 169 180 175 196 243 255 248 242 240 243 244 224 245 256 274 285 275 262 255 252 227 200
98 112 120 125 135 151 151 158 160 152 143 148 153 155 149 141 127 150 167 176 192 184 191 195 203 220 236 242 246 248 254 262 277 304 299 290 280 288 279 281 273 236 215
93 100 136 145 154 152 145 154 154 142 141 145 150 162 170 160 151 147 208 210 224 219 200 202 196 196 226 240 226 205 213 213 218 44 21 19 354 337 329 313 284 277 256
97 100 127 134 141 144 148 159 165 151 147 150 160 181 183 166 154 145 18 2 320 289 237 211 201 221 228 235 228 217 215 213 183 133 147 272 279 271 274 277 276 263 245